Theta_e
305 306 307 308 308 308 308 308 307 308 311 315 315 315 314 312 310 305 301 303 303 300 303 307 307 304 306 303 298 300 299 299 295 294 294 294 293 294 294 295 294 293 290 290 289 287 286 299 299 294 296 296 298 298
305 306 306 307 308 308 308 308 307 308 311 313 314 315 314 312 311 306 298 304 306 302 303 307 309 309 308 307 304 302 299 302 297 297 296 296 294 294 292 292 298 294 296 293 292 291 297 298 297 298 298 297 297 298
304 305 306 307 308 308 307 308 307 307 310 312 314 314 314 312 311 307 299 301 303 301 303 304 304 308 309 309 312 304 305 305 302 301 298 297 295 295 293 294 296 298 298 293 293 294 296 298 299 300 300 300 301 301
305 306 306 307 308 307 307 307 306 307 309 312 313 314 313 312 311 307 300 302 303 303 298 301 308 306 310 308 312 310 308 304 303 301 299 297 297 299 295 296 296 298 297 293 292 295 297 299 299 300 301 302 302 301
305 305 306 307 307 307 307 307 306 306 309 312 314 313 313 312 310 304 301 302 305 302 299 299 303 306 307 307 306 305 304 302 301 301 299 298 298 297 295 295 294 297 295 294 293 297 296 296 299 303 301 301 300 299
305 305 306 307 307 307 307 308 308 309 310 313 314 314 312 311 308 301 296 302 303 302 300 297 302 303 306 306 304 304 303 301 299 301 298 298 298 296 293 292 298 298 300 299 298 299 298 300 303 304 301 301 301 299
305 305 306 307 307 307 307 308 308 309 309 313 313 312 311 309 301 298 298 301 305 305 301 296 296 302 302 302 302 302 300 298 298 295 297 295 295 295 292 291 297 299 301 300 301 301 299 301 299 302 302 301 301 301
305 305 306 307 307 307 307 306 307 308 309 312 311 311 309 308 305 300 302 306 305 303 302 295 294 298 301 298 298 299 297 297 297 294 295 295 295 293 290 294 298 300 300 300 301 301 300 301 301 300 300 300 298 298
305 305 306 306 307 307 307 306 307 308 308 310 310 309 307 300 295 298 310 309 306 303 295 294 293 292 300 298 298 298 295 293 295 294 294 295 291 291 294 297 299 300 299 299 302 302 302 300 299 299 298 298 297 299
305 305 306 306 307 307 306 307 307 307 309 309 308 301 295 299 308 310 302 299 300 298 299 295 297 295 298 296 296 295 295 292 290 293 294 291 291 295 297 300 302 301 302 303 299 298 299 298 298 297 297 298 299 301
305 306 306 307 307 307 306 307 307 307 309 305 298 295 300 309 300 297 293 295 294 292 294 297 296 296 300 296 294 294 292 292 290 292 292 289 289 294 298 300 301 301 303 302 301 302 301 300 298 297 297 298 300 301
305 306 306 307 307 307 307 307 307 304 304 303 301 303 301 299 297 293 290 291 291 291 292 296 297 298 298 298 297 295 292 292 288 293 291 288 293 296 298 300 301 302 303 302 302 301 300 300 298 297 297 299 298 301
305 306 306 306 306 306 306 306 306 307 307 306 302 298 297 292 286 287 285 286 288 291 293 296 296 299 299 299 295 295 292 290 294 290 290 293 294 297 300 302 302 302 303 302 301 300 300 299 299 298 298 302 301 301
305 306 306 306 306 306 306 306 306 306 303 296 294 289 289 288 288 288 289 290 293 294 297 300 297 298 297 296 295 293 293 293 288 286 289 293 295 297 302 303 302 300 300 300 300 299 299 298 298 300 302 302 301 301
305 306 306 306 306 306 305 306 307 305 301 294 294 287 289 291 292 293 293 293 295 300 301 299 297 298 294 294 293 292 289 288 289 289 292 294 296 301 301 301 300 299 299 298 298 298 297 298 298 300 301 301 302 302
305 305 303 306 306 305 305 306 304 303 300 297 294 290 291 290 289 292 293 294 298 301 299 297 293 293 291 292 291 290 290 288 291 293 295 296 300 301 300 301 300 300 298 297 297 297 297 297 297 300 301 301 301 302
304 298 305 305 304 304 304 301 298 297 297 295 292 294 292 291 293 293 295 297 300 303 294 293 292 292 293 290 289 291 291 293 293 295 294 299 300 300 301 301 300 299 297 296 296 295 296 301 301 300 299 300 301 301
299 304 304 304 303 302 300 300 297 296 294 294 293 292 293 294 294 295 298 299 298 295 296 294 294 290 290 290 290 293 295 293 293 294 297 300 301 301 302 299 299 298 296 296 296 296 297 300 299 299 300 301 301 299
302 303 304 303 302 298 293 295 298 292 293 293 294 294 295 297 298 300 300 298 298 298 297 294 293 290 291 294 294 295 295 295 294 295 297 300 302 301 300 300 298 296 296 295 295 294 298 300 300 300 300 300 299 300
304 303 303 303 304 297 294 294 300 294 291 293 294 294 295 296 297 298 297 297 296 296 295 293 293 294 296 298 299 298 297 299 300 299 298 298 300 300 300 299 297 296 295 295 295 293 295 295 298 300 300 300 299 299
302 302 302 302 300 299 296 294 293 295 292 292 292 292 293 295 293 293 294 295 295 292 292 295 297 298 298 298 299 300 300 302 301 301 301 299 299 300 298 297 297 296 295 295 295 294 294 294 295 298 300 300 300 301
301 304 300 301 298 297 294 297 294 295 294 292 291 291 289 289 290 291 292 295 294 295 297 298 298 299 299 298 298 300 299 300 301 301 299 299 299 298 297 297 297 296 296 297 297 296 296 295 296 296 299 300 298 300
302 302 299 297 293 291 291 298 292 293 290 290 290 288 289 289 291 294 293 296 296 298 299 298 298 298 298 298 300 300 301 303 303 303 303 302 301 301 300 299 299 297 296 297 298 298 297 293 292 296 297 298 300 300
303 297 293 291 291 289 295 291 294 292 291 290 291 290 290 291 293 292 293 294 296 298 297 297 299 298 298 298 297 297 298 300 301 301 303 303 301 300 302 301 301 301 301 301 298 298 298 297 294 296 297 297 298 298
291 291 291 287 294 291 290 291 291 291 289 291 291 291 292 295 292 291 290 293 295 295 295 296 297 299 298 296 296 297 299 302 303 302 302 304 300 300 300 301 302 302 303 301 298 298 299 299 298 298 298 297 297 298
287 292 289 291 291 291 291 289 290 290 291 291 291 293 294 292 291 288 289 293 295 296 296 296 296 296 296 296 296 297 298 301 303 302 301 304 305 303 301 299 298 300 302 302 301 301 300 299 299 299 299 298 291 296
287 289 291 295 294 292 290 291 292 290 289 289 288 289 290 289 289 289 292 294 295 297 298 299 299 298 297 297 298 299 299 301 303 303 303 304 304 306 304 301 300 302 304 302 301 301 301 301 302 302 302 302 301 301
292 292 289 291 291 291 289 289 289 288 286 288 289 288 288 287 285 289 292 294 295 298 298 298 299 300 298 298 299 300 299 300 301 301 302 302 304 305 305 304 304 289 304 304 303 302 302 302 301 301 301 301 302 306
289 291 291 288 289 288 287 288 288 289 290 289 286 286 286 288 292 292 294 294 297 297 297 296 296 298 298 298 299 299 300 301 300 298 298 297 298 302 304 304 302 302 304 301 289 296 301 301 301 302 302 302 303 304
290 292 289 289 288 285 286 289 288 288 288 288 290 290 291 293 295 295 294 295 296 297 297 298 297 298 297 298 297 297 299 300 300 299 296 296 298 301 304 304 304 304 304 302 300 297 286 294 295 300 300 301 301 301
291 290 289 287 287 288 288 290 290 290 289 288 289 289 291 292 295 296 296 297 298 299 298 297 297 297 296 296 296 296 297 300 302 302 302 302 303 304 305 305 306 305 303 303 302 300 299 297 299 298 298 299 299 298
290 289 287 287 287 290 290 289 288 287 287 287 287 292 292 292 290 293 297 298 297 296 292 296 297 296 297 297 298 298 293 300 301 302 302 301 300 300 300 302 303 304 303 302 301 300 299 299 299 299 299 299 299 300
289 289 288 287 286 287 289 289 287 286 287 286 287 289 289 290 289 292 295 298 298 297 296 297 297 297 297 298 298 298 295 299 296 288 288 288 288 292 299 300 301 302 301 300 299 299 299 299 299 298 299 299 299 299
Wind_Speed
16 16 17 17 18 17 16 15 13 14 10 18 20 19 19 19 18 5 3 5 3 1 5 1 3 2 1 2 5 2 4 5 5 6 3 2 3 1 4 2 1 3 4 1 2 3 2 5 3 3 4 1 2 4
17 16 16 16 17 17 17 15 14 15 13 13 21 20 20 20 18 6 1 1 3 3 4 3 4 4 3 3 5 2 5 2 5 6 2 3 3 3 2 1 3 2 4 5 3 4 2 3 4 2 3 3 4 4
19 17 16 16 18 18 17 15 13 13 11 10 22 21 21 20 18 7 3 2 2 1 3 3 2 3 1 0 3 5 2 4 2 2 5 3 6 3 3 2 3 2 2 5 3 2 3 4 4 4 5 6 4 5
18 17 17 18 19 18 17 14 13 12 12 12 23 21 21 20 18 7 2 1 2 1 2 4 4 1 6 4 3 3 5 5 6 3 4 4 5 2 3 3 4 3 3 5 2 1 4 3 3 5 6 6 5 4
18 17 17 18 19 18 17 15 14 14 16 15 24 22 22 20 15 5 0 3 2 3 3 3 4 3 4 7 10 7 6 5 3 4 5 2 2 3 1 3 1 2 6 5 5 7 5 3 5 4 6 4 5 5
18 17 17 19 19 18 16 14 15 13 11 15 25 24 22 19 13 4 1 3 4 3 2 1 3 5 7 6 9 9 5 5 4 4 2 2 1 4 4 2 3 3 2 4 5 5 5 8 6 3 5 5 5 5
19 18 18 19 20 18 17 16 12 9 10 19 26 24 21 20 4 4 5 3 5 3 1 2 4 5 4 4 4 4 4 4 4 3 3 3 1 4 3 3 4 3 4 7 9 10 5 2 4 5 6 6 4 3
20 18 19 20 21 20 19 16 11 7 7 25 25 22 19 10 5 3 1 5 2 3 1 4 2 4 5 3 3 4 3 4 7 2 2 3 2 2 1 3 5 6 8 7 4 5 6 8 6 6 4 3 5 6
21 19 19 20 22 20 19 18 13 8 5 28 28 24 8 3 1 4 3 9 1 2 3 3 5 4 3 2 1 4 3 5 3 3 1 3 2 3 7 8 8 9 7 10 7 9 8 8 6 4 4 4 6 6
21 20 20 21 22 21 20 18 15 10 11 33 16 5 4 5 6 11 4 3 3 4 3 2 1 2 4 1 2 2 3 2 2 2 1 3 4 4 3 7 10 9 13 12 10 4 5 4 5 3 3 3 3 4
21 21 21 23 23 22 21 19 17 14 20 2 4 3 1 13 4 3 3 4 1 1 1 2 3 5 1 4 3 0 3 0 2 4 3 1 5 4 3 8 8 9 9 5 6 6 5 7 6 5 3 3 3 3
22 21 22 23 23 22 21 19 17 4 1 3 5 6 4 4 3 5 3 2 3 7 3 6 5 4 2 3 5 1 4 2 2 1 3 2 5 0 6 10 9 9 10 9 8 9 7 7 5 5 4 4 3 1
22 22 22 23 23 23 22 19 16 2 3 1 4 5 4 2 5 9 10 4 4 5 5 5 4 4 2 4 4 3 3 3 1 2 4 6 2 5 6 10 10 8 10 10 8 7 7 6 5 4 3 3 3 2
22 22 23 23 24 24 21 21 17 5 0 4 3 6 6 6 6 6 6 6 5 5 7 5 4 4 1 4 3 5 1 3 2 1 6 3 6 7 7 8 11 9 8 9 8 6 6 5 4 3 4 3 2 2
22 22 23 22 22 22 18 14 14 1 1 3 4 6 7 4 2 4 3 5 3 8 7 5 5 4 3 5 2 4 2 2 5 6 4 3 9 11 10 8 10 9 7 6 5 5 5 5 4 4 3 3 2 2
23 22 8 22 22 17 14 11 3 2 1 3 2 4 2 4 1 3 3 4 4 8 4 5 5 5 2 5 4 5 8 7 5 4 3 7 11 10 10 9 7 7 7 6 5 5 5 5 4 4 4 3 2 3
16 0 24 23 21 17 10 4 2 4 2 3 2 1 2 2 5 4 4 4 3 11 7 5 6 7 4 4 3 5 7 5 3 2 3 7 12 12 10 9 8 8 7 6 5 5 4 4 4 3 4 2 3 3
4 19 27 25 15 10 3 2 3 2 3 1 2 2 2 1 4 3 3 3 5 5 5 6 6 4 6 7 3 5 3 2 2 3 4 8 10 10 9 10 8 8 6 6 5 4 3 4 3 2 3 3 3 4
17 18 27 25 11 5 6 6 3 3 2 1 1 1 1 1 1 4 5 3 3 4 7 3 5 4 4 4 4 4 3 4 4 3 4 6 10 11 10 8 8 6 7 5 5 4 3 3 2 2 2 2 3 2
27 27 25 20 4 2 3 1 1 3 3 2 2 3 2 2 1 4 5 3 3 5 3 3 4 4 5 5 4 4 4 8 11 9 7 4 4 9 9 9 6 6 5 5 4 4 3 2 1 2 2 2 3 3
19 13 19 11 2 1 2 2 3 2 2 4 1 2 2 3 4 4 3 2 5 3 3 3 2 2 1 1 3 6 8 8 9 8 12 8 4 6 6 4 6 4 4 4 4 3 3 3 3 2 3 2 2 1
6 9 3 3 2 1 3 3 3 1 4 2 3 3 4 4 3 3 2 5 2 2 2 3 3 4 4 5 4 5 7 9 8 9 11 13 7 5 5 6 6 4 4 4 4 4 3 3 3 3 2 1 2 1
12 3 3 3 3 5 3 3 5 4 4 2 2 4 4 3 1 2 4 1 1 1 1 2 3 4 6 5 9 7 7 11 8 7 8 5 5 5 5 5 4 5 4 4 3 3 3 4 4 3 3 1 1 1
3 1 3 4 4 4 2 3 3 3 3 2 3 4 3 1 2 4 3 1 2 2 3 4 7 8 6 6 5 3 4 4 6 5 5 8 6 3 4 4 4 4 3 3 4 3 3 4 4 3 3 2 3 2
3 4 4 5 3 4 3 3 4 3 3 2 3 3 1 1 3 3 1 1 1 2 2 3 4 3 7 3 3 3 2 6 8 8 3 4 5 4 4 3 2 2 3 4 4 4 4 3 4 4 4 4 5 5
2 1 2 3 3 3 3 4 3 3 3 4 3 1 1 2 3 3 3 4 3 4 4 5 6 4 4 3 5 4 4 3 5 5 3 5 7 8 7 6 4 3 3 3 4 4 4 4 4 5 5 6 6 5
3 2 3 3 3 3 4 3 3 4 4 4 4 3 2 3 2 3 1 1 2 2 3 3 5 5 6 4 3 3 4 4 3 4 5 5 4 5 8 8 7 5 6 5 4 4 4 4 2 3 4 4 6 7
3 3 5 2 3 1 4 4 3 3 2 2 4 3 4 7 5 2 2 3 2 3 5 4 3 4 5 4 4 6 5 5 7 8 7 5 3 2 3 3 3 5 5 6 6 5 4 4 4 3 3 5 6 5
5 2 4 5 4 6 5 3 2 2 1 2 4 2 2 1 2 1 2 2 1 4 6 5 4 4 6 5 5 4 4 6 8 7 6 4 2 2 2 3 3 3 3 4 2 2 4 3 3 3 3 4 5 4
3 2 5 4 5 4 3 1 2 1 3 3 4 3 2 2 2 1 1 2 3 4 4 6 6 6 6 6 4 4 3 2 2 4 5 4 5 2 4 4 4 3 3 4 3 3 2 1 1 2 2 3 3 3
2 3 5 5 4 2 1 2 3 3 4 4 4 4 2 1 2 3 3 2 4 5 8 6 5 4 7 6 5 5 3 2 3 5 4 4 4 4 3 3 3 3 3 4 4 4 4 3 3 4 4 5 6 5
4 3 5 4 2 1 1 3 3 4 3 4 3 2 2 3 2 3 2 2 5 4 4 5 6 4 3 3 3 2 4 5 4 4 6 4 4 4 3 3 3 3 4 3 3 4 5 6 4 5 5 7 7 7
4 4 5 4 3 2 1 4 3 3 3 3 2 1 1 2 3 3 2 2 3 5 5 4 4 5 6 6 6 5 5 4 6 6 6 5 5 4 3 2 2 2 0 2 2 3 4 5 5 6 7 8 8 6
Wind_Direction
232 230 226 219 208 200 196 205 217 237 235 190 175 179 173 165 161 134 245 188 138 265 278 296 5 16 3 48 123 252 49 354 45 65 109 172 104 120 81 96 112 136 117 123 73 75 8 0 337 68 211 14 30 5
224 220 221 212 203 196 194 197 211 223 216 204 172 176 168 163 162 119 239 225 137 196 257 302 284 287 297 212 137 29 157 148 173 90 71 114 92 64 135 153 31 37 170 170 150 208 220 326 101 84 145 95 12 47
220 212 212 206 200 190 190 192 205 226 227 216 169 173 165 161 163 147 190 168 111 312 300 32 333 311 316 216 178 118 293 157 93 147 148 137 94 126 115 238 104 22 120 92 99 262 129 98 58 58 65 90 64 50
212 206 203 196 192 184 184 187 198 215 240 220 166 169 161 161 168 136 153 181 96 34 119 280 330 352 324 10 145 162 144 70 98 71 88 101 110 171 181 161 129 198 79 125 57 97 83 69 89 125 84 72 58 29
202 200 196 188 186 181 181 183 192 211 235 195 161 161 157 161 155 105 89 221 190 137 153 248 292 343 348 35 55 54 86 92 67 53 51 85 112 107 22 84 63 188 166 154 218 186 136 144 121 104 92 63 47 34
192 191 190 183 182 179 177 173 187 196 216 189 155 155 153 144 130 122 347 252 181 147 102 130 276 345 345 24 49 39 44 68 79 108 124 90 10 98 95 155 259 247 180 156 162 131 100 115 99 96 99 66 49 37
184 184 184 179 177 174 165 162 161 173 214 173 149 150 145 147 121 152 183 235 139 117 196 76 9 344 333 16 35 22 27 64 81 100 63 117 41 77 102 175 199 175 116 101 114 110 75 165 135 96 84 66 61 43
178 178 178 175 170 164 156 159 154 167 227 151 141 135 132 95 15 6 277 168 86 101 24 105 299 11 7 31 39 355 37 31 15 119 46 92 23 46 171 215 149 122 106 90 70 64 115 117 103 89 76 99 62 44
173 173 174 172 167 163 158 159 163 180 234 131 124 119 100 73 124 235 139 123 74 125 127 91 137 196 1 40 22 26 43 55 291 79 47 77 324 224 211 163 165 165 160 142 98 93 100 111 120 112 105 77 80 67
169 169 169 168 163 157 155 158 163 170 161 131 130 97 135 214 178 132 34 67 27 350 41 137 124 132 90 41 45 62 16 93 84 270 56 74 252 259 227 185 157 148 134 134 112 117 128 140 155 140 105 115 94 82
166 166 165 165 160 156 156 161 162 153 174 135 126 112 172 132 83 48 98 133 134 121 190 188 176 139 272 110 145 127 154 61 104 264 124 313 280 244 149 135 128 129 136 107 106 109 131 138 148 142 124 123 91 57
163 162 163 163 160 157 159 154 156 160 174 198 141 114 103 107 75 110 135 94 169 208 185 151 189 149 132 111 96 342 101 57 186 179 83 266 254 359 141 123 114 122 122 112 105 110 106 109 127 131 132 135 112 96
159 159 161 159 157 155 152 154 174 119 13 275 74 83 104 347 87 158 181 211 182 169 175 178 116 120 96 71 71 92 91 197 100 69 229 228 177 118 123 116 104 105 110 105 104 102 110 120 128 127 139 99 135 146
155 156 158 156 155 153 157 173 171 200 271 68 104 136 165 185 217 189 158 154 203 142 150 126 90 113 107 74 130 104 165 104 82 217 237 221 173 144 127 126 125 125 118 122 127 128 130 138 133 122 104 108 120 92
152 154 153 155 156 155 159 172 180 294 135 135 135 177 189 194 154 173 181 107 171 150 137 98 66 89 55 102 54 110 110 189 205 227 230 186 144 141 134 129 128 129 128 129 132 133 140 146 141 123 104 96 94 106
147 140 146 154 147 139 133 110 106 263 210 151 167 118 67 86 118 128 182 144 170 140 82 60 103 89 148 129 128 191 141 208 242 212 194 139 139 139 137 133 126 127 129 131 132 135 137 140 144 125 105 83 80 89
129 103 141 137 120 119 96 68 29 256 157 158 209 152 161 113 165 161 151 161 170 148 152 120 107 180 123 114 181 176 190 213 201 205 148 147 148 143 133 125 126 129 129 130 128 137 150 151 130 124 114 82 102 92
90 127 123 119 110 92 63 267 251 207 148 178 141 160 158 223 124 127 117 141 119 121 133 164 125 140 163 162 218 224 200 88 49 114 128 126 127 128 132 132 131 132 132 133 135 136 151 134 138 131 129 130 107 100
133 129 125 128 151 138 171 208 223 163 113 81 40 70 198 148 58 113 96 78 102 117 105 55 106 159 186 213 171 180 168 161 139 119 84 109 128 129 126 125 128 125 132 131 135 146 146 132 142 144 144 138 122 129
129 129 140 166 138 192 138 209 241 104 112 170 42 34 56 78 71 76 83 56 85 92 73 122 169 191 180 201 182 148 129 138 129 118 118 98 117 128 138 143 142 133 119 112 118 119 113 87 58 139 150 145 129 133
119 158 164 168 236 80 155 205 77 73 121 78 340 37 59 26 48 45 57 336 66 116 138 215 166 138 182 131 119 120 133 149 155 148 151 145 144 132 127 118 124 123 127 143 151 168 167 185 182 184 154 148 149 165
97 101 79 287 256 112 71 15 98 74 61 76 39 37 55 56 45 21 297 59 80 195 191 149 165 136 126 111 108 107 119 106 101 97 89 118 133 135 145 153 142 155 161 170 165 167 182 181 170 177 176 188 191 245
115 199 159 207 81 40 20 1 58 26 71 43 33 56 33 55 8 346 71 29 247 357 139 101 91 80 99 98 100 82 96 118 118 123 132 122 129 124 130 150 147 150 170 206 176 166 173 173 180 178 192 225 232 270
185 177 103 81 64 96 123 50 52 73 69 43 60 78 57 45 340 59 92 351 306 344 60 104 127 103 75 66 87 99 97 102 106 87 125 130 129 146 151 153 164 186 184 150 168 171 177 187 173 187 201 218 235 249
356 9 73 67 100 116 90 110 134 133 83 73 78 62 78 42 77 63 133 296 39 81 67 77 70 87 119 97 88 97 73 145 143 146 166 133 111 96 88 94 145 194 152 141 156 177 193 182 187 196 204 208 230 248
57 177 80 110 102 92 134 108 110 97 82 67 70 107 150 121 93 163 227 195 180 164 170 156 138 101 59 69 135 146 168 142 115 125 164 158 155 152 156 156 160 236 210 182 148 171 186 190 199 209 223 225 223 231
119 90 54 32 103 110 94 77 102 94 103 133 168 145 123 80 169 238 287 244 162 194 130 132 127 128 137 128 108 103 117 124 137 159 139 150 149 162 157 164 192 209 165 171 170 165 166 166 176 220 249 251 234 227
92 79 113 102 88 74 107 87 83 92 131 143 130 90 125 170 192 246 239 278 291 113 100 87 87 108 119 128 109 109 86 91 89 89 82 60 61 150 158 127 112 148 156 169 169 159 164 166 183 209 253 275 276 260
54 46 92 61 60 49 39 47 100 91 149 105 105 116 124 205 249 298 300 311 130 110 104 101 57 88 78 67 57 50 113 131 123 129 140 146 138 242 177 150 147 171 150 142 104 153 172 162 187 226 275 290 286 292
29 35 89 56 58 44 329 324 92 126 50 91 100 97 71 22 328 283 258 111 128 135 136 134 138 128 131 125 114 69 23 36 102 136 155 184 208 196 162 158 160 162 144 146 166 158 83 154 171 245 266 300 293 285
84 69 73 56 78 20 136 102 75 62 53 43 34 74 94 146 28 27 50 77 97 111 119 111 85 94 121 131 134 127 99 358 96 114 114 114 118 121 139 158 169 161 168 180 185 195 193 201 220 241 261 274 282 283
40 68 112 96 107 230 63 59 62 66 53 57 24 38 51 61 50 330 8 73 92 87 68 116 128 149 146 123 121 116 132 130 121 113 115 113 110 108 99 98 110 144 154 173 218 222 204 212 233 239 253 269 264 271
52 55 74 96 76 78 44 93 67 78 57 80 105 147 45 133 158 223 319 26 132 139 144 137 118 119 130 126 127 118 107 111 117 105 100 99 109 112 103 79 54 54 122 178 221 234 237 246 253 258 259 257 265 254